Hourly Data Report for November 10, 2019

All times are specified in Local Standard Time (LST). Add 1 hour to adjust for Daylight Saving Time where and when it is observed.

SEPT-ILES
QUEBEC
Current Station Operator: ECCC - MSC

50°13'00.000" N
66°15'00.000" W
52.60 m
7047914
71279
XZV

Download Data

Hourly Data (November 2019)
Hourly Data Report for November 10, 2019
TIME Temp Definition
°C
Dew Point Definition
°C
Rel Hum Definition
%
Wind Dir Definition
10's deg

Wind Spd Definition
km/h
Visibility Definition
km
Stn Press Definition
kPa
Hmdx Definition


Wind Chill Definition


Weather Definition


00:00 -7.6 -9.1 89 4 7   100.72   -11 LegendNANA
01:00 -7.3 -8.5 91 5 10   100.61   -12 LegendNANA
02:00 -5.9 -6.8 93 6 8   100.46   -10 LegendNANA
03:00 -1.1 -2.4 91 21 12   100.36   -5 LegendNANA
04:00 -0.5 -2.5 87 22 13   100.27   -5 LegendNANA
05:00 0.1 -3.4 77 23 13   100.21     LegendNANA
06:00 0.7 -3.0 76 23 16   100.17     LegendNANA
07:00 1.1 -3.1 73 23 15   100.17     LegendNANA
08:00 0.9 -2.1 81 23 17   100.18     LegendNANA
09:00 0.9 -1.9 81 24 13   100.13     LegendNANA
10:00 1.3 -2.5 76 23 14   100.08     LegendNANA
11:00 1.1 -2.2 79 23 14   100.02     LegendNANA
12:00 0.6 -1.7 85 22 14   99.95     LegendNANA
13:00 0.1 -0.5 95 22 10   99.91     LegendNANA
14:00 0.2 -0.5 95 20 8   99.85     LegendNANA
15:00 0.3 -0.2 97 21 10   99.81     LegendNANA
16:00 0.4 0.0 97 22 9   99.78     LegendNANA
17:00 0.7 -0.5 92 23 17   99.73     LegendNANA
18:00 1.2 0.0 92 24 18   99.71     LegendNANA
19:00 1.6 0.3 91 24 17   99.68     LegendNANA
20:00 1.8 0.5 91 25 17   99.64     LegendNANA
21:00 1.9 0.1 88 24 16   99.64     LegendNANA
22:00 -1.0 -3.9 81 29 13   99.80   -5 LegendNANA
23:00 -2.6 -5.3 82 29 10   99.95   -6 LegendNANA

Notes on Data Quality.

Legend

  • E = Estimated
  • M = Missing
  • NA = Not Available
Date modified: